Airfield :
LOGIN :

Register | Disclaimer

   EN    FR    IT 

 










Legend :    VFR   Marginal VFR   IFR   Intensive IFR   Very Intensive IFR
Visi :
Ceiling :
>= 8 km
>= 3000ft
5 to 8 km
1000 to 3000 ft
1500m to 5 km
500 to 1000 ft
800 to 1500m
200 to 500 ft
< 800m
< 200 ft
Symbols :   Thunderstorms  Fog  Heavy snow  Heavy precipitations  Wind > 20 kt
SIGMETs :     Misc.  Thunderstorms  Icing  Turbulence  Mountain Waves  Volcanic Ashes







- Airport Elevation : 2776 ft
- IATA code : VLL


LEVD - Valladolid

CURRENT METAR :
  • 141830Z 26008KT 9999 FEW032 04/02 Q1024

EXPIRED METARs :
  • 141800Z 26006KT 9999 FEW033 04/01 Q1024
  • 141730Z 27008KT 9999 FEW029 05/01 Q1024
  • 141700Z 26005KT 9999 FEW029 05/01 Q1024
  • 141630Z 25006KT 9999 FEW029 06/02 Q1023
  • 141600Z 27006KT 250V310 9999 SCT025 07/01 Q1023

TAF TAF LEVD
Valid from the 14 at 18:00 until the 15 at 18:00 UTC


141700Z 1418/1518 25006KT 9999 FEW025 TX11/1515Z TN02/1507Z
BECMG 1501/1503 BKN014
PROB30
TEMPO 1505/1518 BKN008
No reported NOTAMs for that airfield.



MET'MAP, your aeronautical weather chart ! - Copyright ORBIFLY December 2007 - Disclaimer

ORBIFLY MET'MAP TEAM :

Programming & Development : Alexandra Zaïnal
Concept & Development : Baudouin d'Aumeries
Co-Development & Prog : Marc-Olivier Méhu
Technical & hardware support : Manuel Goepfert

Contact : metmap@orbifly.com




SOURCES & CREDITS :

   NOAA